Location: Westminster
(33.3626°N, 96.4619°W)
Time: 21:40:00
(UTC+00:00)

OAO 3 Rocket - Pass Details

Date: 12 July 2022
Orbit: 627 x 681 km, 35.0° (Epoch: 14 August)

Event Time Altitude Azimuth Distance (km) Brightness Sun altitude
Rises 03:43:40 0° 258° (WSW) 2,941 6.9 -21.7°
Reaches altitude 10° 03:46:00 10° 259° (W) 2,041 6.1 -22.0°
Maximum altitude 03:50:46 87° 346° (NNW) 660 3.1 -22.7°
Enters shadow 03:52:06 49° 75° (ENE) 852 3.5 -22.9°
